Regional Weather Roundup
Issued by NWS

Home | Current Version | Previous Version | Graphics & Text | Print | Product List | Glossary On
Versions: 1 2 3 4 5 6 7 8 9 10 11 12 13 14 15 16 17 18 19 20 21 22 23 24 25 26 27
000
ASUS45 KSLC 181510
RWRUT

UTAH REGIONAL WEATHER ROUNDUP
NATIONAL WEATHER SERVICE SALT LAKE CITY UT
800 AM MST SAT NOV 18 2017

UTZ001>011-023>025-181600-

NORTHERN UTAH

CITY           SKY/WX    TMP DP  RH WIND       PRES   REMARKS
BRIGHAM CITY   CLEAR     26  22  86 CALM      30.46R
HILL AFB       CLEAR     26  17  70 E13       30.44R WCI  14
LOGAN          PTCLDY    24  20  84 CALM      30.44R
OGDEN          PTCLDY    27  19  72 S12       30.44R WCI  17
SALT LAKE CITY PTCLDY    31  21  66 SE9       30.46R WCI  23
TOOELE VALLEY  CLEAR     27  21  80 S9        30.46R WCI  17
WENDOVER       PTCLDY    24  18  77 CALM      30.46R
HEBER CITY       N/A     18  12  79 CALM      30.44R
WEST JORDAN    CLEAR     27  22  80 NW5       30.46R WCI  22

$$

UTZ011>015-024>027-181600-

CENTRAL/NORTHEAST UTAH

CITY           SKY/WX    TMP DP  RH WIND       PRES   REMARKS
PROVO AIRPORT  PTCLDY    24  19  81 S5        30.48R WCI  18
MOAB/CANYONLAN PTCLDY    25  11  55 W3        30.42R
DELTA          MOCLDY    18  16  93 NE5       30.45S WCI  11
PRICE          PTCLDY    22  13  68 CALM      30.40R
ROOSEVELT      CLOUDY    19  10  68 CALM      30.45R
VERNAL         CLOUDY    19  12  74 NW3       30.43R

$$

UTZ013>016-019>022-027-181600-

SOUTHERN UTAH

CITY           SKY/WX    TMP DP  RH WIND       PRES   REMARKS
BRYCE CANYON   PTCLDY     8   4  83 W9        30.39R WCI  -5
CEDAR CITY     PTCLDY    19  16  88 CALM      30.38R
MILFORD        PTCLDY    18  15  88 CALM      30.42R
ST GEORGE      MOSUNNY   40  16  37 NE10      30.41R WCI  33
HANKSVILLE     MOCLDY    23  10  58 CALM      30.46R
BLANDING         N/A     23   9  55 NW3       30.44R

$$

REGIONAL REPORTS     COLORADO/ARIZONA

CITY           SKY/WX    TMP DP  RH WIND       PRES   REMARKS
CRAIG, CO      CLOUDY     9   6  88 W3        30.42R
GRAND JUNCTION CLOUDY    27  19  72 CALM      30.44R
RIFLE, CO      CLOUDY    17  13  84 S6        30.46R WCI   9
MONTROSE, CO   CLOUDY    22  16  78 SE9       30.45R WCI  12
CORTEZ, CO     CLOUDY    27  13  55 CALM      30.33R
COLORADO CITY    N/A     36  10  35 NE9       30.39R WCI  29
PAGE, AZ       PTCLDY    36  14  40 CALM      30.40R
GRAND CANYON   PTCLDY    31  10  41 E13       30.34R WCI  21
KINGMAN, AZ    CLEAR     38  19  46 NE8       30.29R WCI  32
FLAGSTAFF, AZ  PTCLDY    29  10  45 E14G21    30.34R WCI  18

$$

REGIONAL REPORTS    NEVADA/IDAHO/WYOMING

CITY           SKY/WX    TMP DP  RH WIND       PRES   REMARKS
LAS VEGAS, NV  CLEAR     48  17  29 N5        30.35R
ELY, NY        PTCLDY     6   2  83 S10       30.39R WCI  -9
ELKO, NV       PTCLDY    19  14  81 E3        30.40R
POCATELLO, ID  PTCLDY    25  19  78 CALM      30.41R
BURLEY, ID     CLEAR     27  19  72 SW12      30.40R WCI  17
EVANSTON, WY   CLOUDY    11   9  92 SW9       30.37R WCI  -2
ROCK SPRINGS,  CLOUDY    17  12  80 SW18      30.34R WCI   1

$$




USA.gov is the U.S. government's official web portal to all federal, state and local government web resources and services.